Greenville, AL

10:25 AM CDT on April 24, 2017 (GMT -0500)
Greenville Municipal

Weather History for KPRN - August, 2013

Change the Weather History Date:

Thursday, August 1, 2013

  Actual Average Record
Temperature  
Mean Temperature 80 °F -  
Max Temperature 90 °F 90 °F 102 °F (2010)
Min Temperature 69 °F 69 °F 62 °F (1936)
Cooling Degree Days 14    
Growing Degree Days 30 (Base 50)    
Moisture  
Dew Point 72 °F    
Average Humidity 85    
Maximum Humidity 100    
Minimum Humidity 57    
Precipitation  
Precipitation 2.73 in - - ()
Sea Level Pressure  
Sea Level Pressure 29.98 in    
Wind  
Wind Speed 4 mph (SSW)    
Max Wind Speed 17 mph    
Max Gust Speed 24 mph    
Visibility 7 miles    
Events Fog , Rain , Thunderstorm    
Averages and records for this station are not official NWS values.
T = Trace of Precipitation, MM = Missing Value Source: NWS Daily Summary

Daily Weather History Graph

Daily Weather History Graph

Search for Another Location

Airport or City:

Trip Planner

Search our weather history database for the weather conditions in past years. The results will help you decide how hot, cold, wet, or windy it might be!

Date:

Astronomy

Aug. 01, 2013 Rise Set
Actual Time 6:02 AM CDT 7:42 PM CDT
Civil Twilight 5:35 AM CDT 8:09 PM CDT
Nautical Twilight 5:03 AM CDT 8:41 PM CDT
Astronomical Twilight 4:30 AM CDT 9:14 PM CDT
Moon 1:39 AM CDT (8/1) 3:49 PM CDT (8/1)
Length of Visible Light 14h 33m
Length of Day
13h 40m
Waning Crescent, 23% of the Moon is Illuminated
Aug 1
Waning Crescent
Aug 6
New
Aug 14
First Quarter
Aug 20
Full
Aug 28
Last Quarter

Hourly Weather History & Observations

Time (CDT) Temp. Heat Index Dew Point Humidity Pressure Visibility Wind Dir Wind Speed Gust Speed Precip Events Conditions
12:26 AM 73.4 °F - 71.6 °F 94% 30.01 in 5.0 mi South 3.5 mph - N/A   Overcast
12:56 AM 73.0 °F - 72.0 °F 96% 29.99 in 6.0 mi SSW 3.5 mph - N/A   Mostly Cloudy
1:04 AM 73.4 °F - 71.6 °F 94% 30.00 in 6.0 mi SSW 3.5 mph - N/A   Scattered Clouds
1:56 AM 73.0 °F - 71.1 °F 93% 29.97 in 3.0 mi South 3.5 mph - N/A   Clear
2:42 AM 73.4 °F - 71.6 °F 94% 29.99 in 2.0 mi Calm Calm - N/A   Mostly Cloudy
2:53 AM 73.4 °F - 71.6 °F 94% 29.98 in 4.0 mi Calm Calm - N/A   Mostly Cloudy
2:56 AM 73.0 °F - 71.1 °F 93% 29.96 in 4.0 mi Calm Calm - N/A   Scattered Clouds
3:17 AM 73.4 °F - 71.6 °F 94% 29.97 in 3.0 mi SSE 3.5 mph - N/A   Scattered Clouds
3:20 AM 73.4 °F - 71.6 °F 94% 29.97 in 1.8 mi SSE 3.5 mph - N/A   Mostly Cloudy
3:30 AM 73.4 °F - 71.6 °F 94% 29.97 in 0.5 mi Calm Calm - N/A Fog Fog
3:56 AM 73.0 °F - 72.0 °F 96% 29.96 in 0.2 mi Calm Calm - N/A Fog Fog
4:18 AM 73.4 °F - 71.6 °F 94% 29.98 in 0.5 mi South 3.5 mph - 0.00 in Fog , Rain , Thunderstorm Light Thunderstorms and Rain
4:27 AM 73.4 °F - 71.6 °F 94% 29.98 in 0.8 mi Calm Calm - 0.01 in Rain , Thunderstorm Light Thunderstorms and Rain
4:35 AM 73.4 °F - 71.6 °F 94% 29.98 in 2.0 mi Calm Calm - 0.01 in Rain , Thunderstorm Light Thunderstorms and Rain
4:43 AM 73.4 °F - 71.6 °F 94% 29.98 in 5.0 mi Calm Calm - 0.01 in Rain , Thunderstorm Light Thunderstorms and Rain
4:54 AM 73.4 °F - 71.6 °F 94% 29.99 in 4.0 mi NE 5.8 mph - 0.01 in Rain , Thunderstorm Light Thunderstorms and Rain
4:56 AM 73.0 °F - 72.0 °F 96% 29.97 in 4.0 mi NE 5.8 mph - 0.01 in Rain , Thunderstorm Light Thunderstorms and Rain
5:03 AM 73.4 °F - 73.4 °F 100% 29.99 in 5.0 mi NNE 4.6 mph - 0.00 in Rain , Thunderstorm Light Thunderstorms and Rain
5:27 AM 73.4 °F - 71.6 °F 94% 30.00 in 2.5 mi North 8.1 mph - 0.08 in Rain , Thunderstorm Heavy Thunderstorms and Rain
5:39 AM 73.4 °F - 71.6 °F 94% 30.00 in - NNW 17.3 mph 24.2 mph 0.64 in Rain , Thunderstorm Heavy Thunderstorms and Rain
6:06 AM 69.8 °F - 68.0 °F 94% 30.05 in - East 9.2 mph 17.3 mph 2.15 in Rain , Thunderstorm Heavy Thunderstorms and Rain
6:16 AM 69.8 °F - 66.2 °F 88% 30.01 in 0.8 mi SSE 6.9 mph - 2.64 in Rain , Thunderstorm Heavy Thunderstorms and Rain
6:25 AM 69.8 °F - 68.0 °F 94% 30.02 in 2.0 mi South 8.1 mph - 2.72 in Rain , Thunderstorm Heavy Thunderstorms and Rain
6:33 AM 71.6 °F - 69.8 °F 94% 30.02 in 7.0 mi SSW 9.2 mph - 2.72 in Rain , Thunderstorm Light Thunderstorms and Rain
6:56 AM 72.0 °F - 70.0 °F 93% 29.99 in 10.0 mi South 8.1 mph - 2.72 in Thunderstorm Thunderstorm
7:31 AM 73.4 °F - 69.8 °F 88% 30.02 in 10.0 mi SSW 8.1 mph - N/A Thunderstorm Thunderstorm
7:40 AM 73.4 °F - 69.8 °F 88% 30.02 in 10.0 mi SSW 5.8 mph - N/A   Mostly Cloudy
7:56 AM 73.0 °F - 70.0 °F 90% 30.01 in 10.0 mi SSW 8.1 mph - N/A   Overcast
8:11 AM 73.4 °F - 69.8 °F 88% 30.02 in 10.0 mi SSW 6.9 mph - N/A   Scattered Clouds
8:56 AM 77.0 °F - 71.1 °F 82% 30.00 in 10.0 mi Calm Calm - N/A   Scattered Clouds
9:56 AM 82.9 °F 89.4 °F 73.9 °F 74% 29.99 in 10.0 mi Calm Calm - N/A   Clear
10:56 AM 86.0 °F 92.2 °F 72.0 °F 63% 29.97 in 10.0 mi NW 8.1 mph - N/A   Clear
11:56 AM 88.0 °F 93.8 °F 71.1 °F 57% 29.96 in 10.0 mi NNW 8.1 mph - N/A   Clear
12:56 PM 90.0 °F 97.9 °F 73.0 °F 57% 29.96 in 10.0 mi SW 3.5 mph - N/A   Partly Cloudy
1:56 PM 89.1 °F 97.0 °F 73.0 °F 59% 29.94 in 10.0 mi Variable 4.6 mph - N/A   Scattered Clouds
2:56 PM 87.1 °F 96.3 °F 75.0 °F 67% 29.92 in 10.0 mi WNW 6.9 mph - N/A   Mostly Cloudy
3:56 PM 90.0 °F 97.9 °F 73.0 °F 57% 29.91 in 10.0 mi North 8.1 mph - N/A   Clear
4:54 PM 89.6 °F 98.2 °F 73.4 °F 59% 29.93 in 10.0 mi North 4.6 mph - N/A Thunderstorm Thunderstorm
4:56 PM 88.0 °F 96.5 °F 73.9 °F 63% 29.91 in 10.0 mi NNW 6.9 mph - N/A Thunderstorm Thunderstorm
5:44 PM 87.8 °F 95.6 °F 73.4 °F 62% 29.93 in 10.0 mi North 4.6 mph - N/A   Clear
5:56 PM 89.1 °F 99.1 °F 75.0 °F 63% 29.93 in 10.0 mi NNW 3.5 mph - N/A   Clear
6:56 PM 82.9 °F 89.4 °F 73.9 °F 74% 29.93 in 10.0 mi SW 4.6 mph - N/A   Mostly Cloudy
7:56 PM 79.0 °F - 73.0 °F 82% 29.95 in 10.0 mi SSW 4.6 mph - N/A   Scattered Clouds
8:56 PM 77.0 °F - 73.0 °F 88% 29.95 in 10.0 mi Calm Calm - N/A   Clear
9:56 PM 77.0 °F - 73.9 °F 90% 29.96 in 10.0 mi Calm Calm - N/A   Clear
10:56 PM 75.9 °F - 73.0 °F 91% 29.97 in 10.0 mi Calm Calm - N/A   Clear
11:56 PM 73.9 °F - 72.0 °F 93% 29.96 in 9.0 mi Calm Calm - N/A   Clear